Wind_Speed
4 2 0 1 4 6 3 2 1 1 3 2 6 8 8 8 3 3 9 7 4 6 8 10 8 6 8 8 7 5 2 3 4 2 2 2 3 5 9 11 11 10 12 15 20 21 16 13 13
3 1 0 2 5 5 3 4 3 0 8 13 11 8 10 4 5 13 12 10 7 8 9 10 9 9 9 8 6 4 3 3 3 1 2 3 6 10 13 13 14 18 20 21 22 20 12 8 9
4 2 1 4 4 4 4 1 3 5 9 6 4 8 4 4 10 13 13 11 9 10 10 10 11 10 9 8 7 5 3 2 0 2 3 4 8 12 13 14 16 17 17 13 9 5 6 5 12
3 2 6 6 4 4 3 3 9 6 4 4 9 6 7 6 8 11 14 12 12 13 13 13 11 10 9 8 7 6 3 1 1 2 2 4 6 7 7 8 10 10 9 5 4 5 8 9 9
4 4 5 5 4 3 3 4 11 6 6 5 5 3 4 6 11 15 13 13 12 15 14 14 11 10 9 7 5 2 2 3 3 2 3 5 6 6 6 7 8 9 9 9 9 9 8 10 12
4 4 5 4 1 3 2 3 5 5 8 12 11 7 4 12 16 16 12 13 11 10 12 11 10 7 4 2 1 2 2 3 3 4 4 4 4 5 4 6 7 7 8 9 10 10 10 12 12
6 5 4 4 3 2 1 3 4 5 4 3 11 5 9 15 14 14 12 12 9 6 3 4 5 3 4 6 5 4 4 4 5 6 6 5 6 7 8 7 7 6 7 8 10 11 11 11 11
5 5 3 3 2 1 3 2 4 4 3 9 8 6 6 19 16 15 12 9 7 5 4 3 3 5 8 10 10 7 5 3 4 5 6 7 7 8 8 9 9 9 9 10 10 11 10 10 11
4 5 2 3 4 2 2 2 3 3 6 3 3 7 8 21 21 19 17 13 9 6 3 1 2 6 9 11 11 7 5 3 4 6 7 8 7 7 8 9 9 11 12 12 12 12 12 11 9
6 5 4 3 4 1 3 1 3 2 3 2 3 6 17 24 22 21 20 15 8 6 3 2 2 3 7 6 7 7 6 5 4 6 8 9 10 9 9 10 12 14 15 16 15 15 12 12 11
3 4 3 2 2 1 1 2 2 9 2 9 12 13 21 22 19 19 17 12 5 5 7 6 5 5 7 6 5 6 7 6 7 8 9 10 11 11 12 13 16 17 17 17 17 17 16 13 12
6 4 3 2 2 3 2 2 2 8 6 8 10 14 19 20 18 16 16 14 12 9 10 9 5 6 8 9 9 9 10 9 9 10 11 11 12 13 16 17 18 18 19 19 19 18 17 17 16
4 2 3 2 5 4 2 4 5 12 9 7 10 17 21 18 14 14 14 14 13 14 12 9 4 7 8 9 11 11 11 11 12 13 14 15 15 17 18 19 19 20 20 20 20 18 17 18 17
2 1 2 1 3 1 2 4 3 3 3 10 13 19 21 19 14 16 17 16 14 13 12 11 4 5 7 10 10 10 11 13 14 16 16 16 17 19 19 19 19 20 21 21 21 19 17 16 17
4 5 6 8 5 2 2 6 6 8 7 8 15 19 21 19 17 16 13 14 13 10 14 10 4 3 7 9 9 10 12 13 14 14 14 16 18 18 18 19 20 19 21 21 21 21 21 19 17
6 6 5 6 4 5 3 8 13 7 6 14 13 19 23 22 20 18 15 13 12 12 14 10 4 4 7 8 11 12 13 15 15 16 17 17 17 17 18 20 19 17 18 19 21 21 21 20 19
8 1 2 7 7 5 2 8 13 11 18 22 12 18 22 22 19 16 14 11 14 16 14 9 2 4 4 7 10 11 13 14 15 17 19 20 21 20 21 21 20 19 19 19 21 22 21 21 22
2 2 2 3 6 7 4 8 9 18 14 16 11 10 21 17 13 11 11 12 13 16 12 9 1 2 4 6 9 9 11 12 14 16 18 21 23 25 26 26 25 24 24 24 24 24 24 24 24
0 1 2 3 1 5 4 6 9 15 9 6 3 5 8 8 6 2 2 1 5 9 9 3 3 2 5 10 12 14 15 16 20 22 22 24 27 30 32 33 32 30 31 29 27 27 28 29 28
3 2 4 5 3 0 6 7 6 10 7 9 10 13 14 13 11 10 11 9 9 5 3 4 5 9 11 14 16 18 22 23 24 25 27 30 31 32 36 39 39 39 38 37 35 34 34 33 33
4 2 2 5 6 1 5 4 7 5 11 12 11 9 11 11 10 8 8 5 3 0 2 3 5 10 14 18 19 21 23 24 27 27 26 27 33 34 36 35 39 43 44 44 42 42 40 39 37
4 2 2 4 2 1 4 2 6 6 4 6 5 6 8 7 6 5 1 3 4 5 6 7 10 13 17 17 16 20 23 27 29 32 36 38 33 31 31 32 32 35 44 49 48 46 44 42 40
6 4 2 1 2 3 9 4 6 6 5 2 2 7 5 6 4 3 7 8 10 9 8 8 8 10 12 14 18 22 27 31 34 37 37 35 35 35 35 35 36 36 36 43 50 47 42 39 37
6 3 5 4 2 3 3 3 5 3 4 4 1 2 3 4 4 4 5 4 4 1 1 4 7 11 16 22 27 31 31 34 36 38 39 40 41 40 38 36 34 36 36 37 35 36 29 25 23
9 6 3 5 5 4 3 1 6 6 4 2 3 2 0 5 7 4 3 2 1 2 6 11 18 23 26 29 31 33 33 32 35 39 40 38 37 36 35 32 28 27 20 21 24 25 25 21 18
3 4 4 2 1 5 5 3 2 4 8 8 7 6 5 7 8 7 5 4 4 8 15 21 25 28 30 30 28 27 28 34 38 40 39 33 31 32 30 28 19 17 17 16 8 5 7 12 15
2 4 2 5 2 3 3 4 5 4 9 15 11 11 13 12 11 10 8 7 10 18 24 26 27 26 26 25 27 32 37 41 44 41 35 26 27 29 22 16 11 7 9 10 19 18 17 27 23
6 4 4 4 2 4 5 5 4 6 9 7 6 8 12 12 12 13 14 15 16 18 22 23 23 23 24 28 30 35 42 44 44 40 25 21 25 19 9 7 7 12 15 17 22 24 18 16 13
4 3 5 3 3 3 3 5 5 5 2 7 3 8 13 14 15 17 19 19 20 22 24 23 25 27 29 30 34 40 43 45 41 25 16 14 11 7 6 8 11 16 18 15 12 12 12 14 17
2 3 4 4 4 2 3 6 2 5 4 9 4 7 13 17 20 21 21 23 21 27 25 24 27 30 31 30 36 42 42 36 26 19 7 6 5 6 7 14 12 8 13 18 19 19 20 22 23
Wind_Direction
136 152 274 163 62 63 29 9 239 344 51 27 75 85 100 57 71 157 135 141 120 124 129 127 130 121 115 133 150 161 131 82 98 96 115 180 185 193 216 222 223 225 251 273 285 297 302 287 273
136 131 56 112 85 75 311 299 76 74 109 93 63 55 48 58 79 131 141 137 111 104 100 106 116 116 103 107 118 122 84 104 110 102 232 224 215 218 228 236 248 264 278 286 293 296 297 273 255
110 121 23 86 106 126 134 292 85 107 127 22 95 67 83 92 118 140 145 131 127 108 103 106 101 105 100 93 84 73 83 87 177 265 259 246 232 237 250 266 279 288 295 301 299 313 302 290 242
154 108 76 75 65 8 115 167 121 119 94 86 112 62 79 111 135 143 135 129 127 121 116 110 108 96 80 70 67 54 47 38 216 233 257 281 270 260 272 279 284 289 296 312 314 281 279 278 269
74 67 59 66 21 349 22 171 163 152 129 118 150 121 94 145 148 147 134 128 136 128 119 110 96 79 67 53 43 34 213 216 227 259 294 293 293 306 312 307 302 306 311 316 303 296 297 288 281
68 73 64 103 174 321 34 111 118 88 105 109 106 105 109 141 146 138 136 129 138 128 105 98 95 77 80 80 19 291 271 269 276 287 286 293 293 290 289 297 303 306 303 301 296 302 304 302 301
108 80 143 135 134 72 323 347 80 105 105 88 132 104 152 166 150 134 131 129 135 116 110 103 106 88 43 18 9 357 333 305 298 298 299 289 285 284 299 301 307 293 289 293 294 299 304 306 312
90 90 83 11 78 58 321 77 110 85 81 132 151 164 174 172 159 159 148 143 146 158 156 120 61 29 15 6 3 6 8 342 316 301 295 287 282 285 289 293 312 322 316 309 300 297 295 297 300
95 64 96 154 127 243 356 111 70 83 131 121 155 155 149 168 173 175 176 178 181 188 172 114 358 10 4 4 354 360 11 359 312 300 297 290 284 279 292 296 307 314 309 305 302 302 305 303 291
79 91 167 185 171 127 43 96 128 126 118 133 157 159 159 173 184 187 191 197 201 201 205 291 302 334 345 352 354 348 357 347 322 308 296 288 289 284 297 304 306 307 308 305 302 303 305 305 298
80 140 180 90 82 130 316 318 175 142 206 187 196 174 173 180 189 200 203 216 245 244 240 259 284 324 345 346 331 326 329 323 318 315 309 293 285 285 294 306 307 304 297 296 294 298 300 302 305
76 86 122 164 192 142 206 262 270 211 230 203 205 185 182 187 198 207 212 230 232 241 251 239 262 334 3 0 337 313 308 303 301 291 302 297 284 283 290 296 299 297 295 295 292 288 288 291 294
68 127 173 174 183 206 213 253 265 264 253 229 213 191 192 196 198 213 224 237 232 235 233 228 270 4 3 358 346 313 307 302 299 297 298 298 293 292 294 295 296 295 294 295 293 290 288 292 296
28 115 301 306 217 235 236 281 336 310 268 245 222 202 201 201 195 210 225 231 240 234 227 221 246 357 357 352 349 331 317 311 308 304 299 288 290 295 298 299 298 297 297 295 294 295 293 290 290
37 32 7 23 342 336 299 323 238 250 314 275 230 212 205 211 208 216 227 239 247 244 214 219 241 342 356 353 352 346 333 325 318 310 299 298 299 299 300 303 303 304 300 294 292 292 293 292 289
39 48 24 328 35 26 72 275 283 279 303 309 252 222 213 213 219 233 240 243 245 231 215 221 232 354 357 7 356 353 346 339 332 324 314 309 304 300 297 302 301 299 299 291 288 289 288 288 289
8 117 342 327 54 10 49 273 278 313 308 293 283 232 216 214 219 230 239 249 234 221 218 223 234 359 24 10 4 359 357 349 340 330 320 315 312 306 300 301 296 289 293 285 281 278 279 282 285
299 354 312 253 321 359 326 276 294 319 287 293 298 236 210 208 216 238 252 249 223 221 222 206 271 29 346 349 345 330 328 331 333 329 324 314 309 304 299 298 295 288 283 282 281 279 276 279 281
146 233 302 266 288 349 317 293 315 353 44 20 358 139 174 174 159 151 315 357 203 193 189 214 236 348 344 327 320 318 320 319 327 325 315 314 312 307 298 292 289 283 276 278 278 278 276 276 280
39 33 313 295 282 164 351 323 320 8 27 43 87 111 118 116 107 93 86 86 107 133 198 257 263 294 321 316 307 308 313 316 320 316 310 309 310 310 299 294 291 285 279 276 272 270 269 270 270
331 193 235 241 328 48 337 353 356 349 54 71 82 101 112 105 100 103 111 105 129 228 257 278 291 296 290 284 288 296 303 306 307 310 307 301 301 300 299 295 282 276 275 271 270 268 266 265 264
319 149 276 265 62 215 20 238 342 335 360 55 84 131 135 134 144 141 122 252 262 246 244 257 267 276 289 303 312 313 315 314 315 314 313 310 307 300 298 301 298 283 271 269 268 265 264 257 253
247 340 275 263 132 88 352 70 293 357 359 16 199 178 168 172 163 223 235 236 243 243 247 272 296 302 303 306 311 313 313 313 312 311 312 308 305 304 301 298 295 293 287 275 268 258 253 247 241
294 34 43 47 70 45 317 97 300 323 286 316 309 169 190 185 211 248 221 188 196 196 300 312 315 319 316 314 314 318 321 321 318 317 316 313 310 306 304 303 299 292 284 276 265 244 233 220 213
23 41 359 5 10 216 284 48 231 307 356 283 204 168 311 302 302 249 253 213 166 356 354 342 332 326 323 322 320 316 315 317 319 320 318 313 310 310 310 312 307 293 273 236 219 202 196 197 205
10 92 130 192 292 277 313 210 241 8 20 63 56 30 3 19 36 49 69 46 15 352 343 334 329 323 320 318 317 318 321 324 325 325 323 313 308 309 313 315 305 271 224 198 184 215 238 259 260
330 46 154 104 12 35 275 307 300 72 15 347 358 57 54 49 37 23 1 341 336 332 321 316 319 320 320 324 326 325 327 326 325 321 322 300 303 304 298 282 258 249 258 265 259 279 285 306 317
94 136 33 11 46 306 304 296 247 21 330 359 76 49 26 12 0 346 330 318 302 307 318 320 323 326 328 329 329 327 327 328 329 328 311 297 295 286 259 254 278 301 306 296 290 309 310 309 317
3 28 55 106 117 186 288 267 205 191 313 148 124 21 13 359 339 317 308 296 298 312 317 326 333 334 332 332 330 328 328 331 330 324 316 280 261 236 268 292 296 296 311 316 316 308 300 294 294
97 124 107 111 298 227 175 266 233 125 167 160 220 331 335 330 328 320 303 294 299 326 327 329 333 333 331 327 326 326 328 329 331 327 288 212 238 271 289 283 294 290 317 320 313 307 303 302 299
Height
1509 1508 1509 1510 1519 1527 1537 1530 1524 1524 1524 1524 1526 1526 1531 1533 1535 1545 1542 1543 1544 1543 1545 1545 1547 1547 1546 1546 1549 1549 1552 1552 1551 1553 1551 1554 1553 1552 1552 1553 1552 1551 1550 1551 1552 1551 1549 1550 1552
1508 1508 1510 1509 1530 1543 1540 1526 1527 1525 1525 1526 1526 1529 1531 1538 1538 1539 1542 1543 1544 1544 1546 1546 1547 1547 1548 1548 1549 1549 1550 1553 1552 1554 1553 1552 1552 1551 1551 1552 1551 1551 1551 1551 1551 1549 1547 1549 1548
1507 1508 1511 1518 1536 1540 1538 1526 1527 1526 1526 1527 1529 1532 1535 1539 1540 1540 1540 1541 1542 1545 1545 1547 1548 1549 1549 1549 1549 1550 1551 1553 1552 1552 1553 1552 1551 1551 1552 1551 1552 1551 1549 1550 1549 1548 1547 1548 1549
1507 1510 1513 1527 1532 1527 1526 1525 1527 1529 1528 1527 1529 1535 1537 1539 1539 1541 1541 1542 1543 1544 1546 1550 1550 1549 1550 1551 1549 1551 1550 1551 1551 1552 1552 1551 1550 1551 1551 1550 1549 1548 1548 1547 1546 1545 1546 1546 1546
1506 1509 1525 1534 1532 1528 1526 1524 1526 1527 1528 1530 1531 1535 1537 1539 1540 1542 1542 1543 1544 1545 1548 1547 1550 1550 1551 1552 1551 1551 1551 1550 1551 1551 1551 1550 1550 1550 1549 1548 1548 1546 1545 1544 1544 1544 1544 1544 1542
1507 1512 1537 1543 1533 1528 1527 1528 1526 1527 1528 1531 1532 1534 1538 1539 1541 1542 1545 1544 1546 1548 1548 1549 1549 1552 1553 1552 1551 1551 1550 1551 1552 1551 1551 1551 1550 1549 1548 1547 1546 1545 1544 1544 1544 1543 1543 1542 1541
1507 1519 1537 1535 1535 1529 1527 1527 1526 1526 1529 1531 1531 1533 1539 1540 1542 1544 1547 1544 1549 1548 1550 1550 1551 1552 1552 1552 1551 1550 1550 1551 1551 1551 1551 1551 1550 1549 1548 1546 1545 1544 1543 1542 1542 1541 1541 1540 1540
1507 1516 1530 1534 1535 1532 1528 1528 1527 1527 1532 1531 1533 1534 1536 1539 1541 1546 1546 1547 1549 1549 1551 1551 1552 1552 1551 1551 1550 1549 1549 1550 1550 1550 1550 1550 1549 1549 1548 1547 1546 1545 1544 1543 1541 1540 1539 1538 1537
1509 1527 1539 1532 1530 1528 1527 1528 1529 1528 1530 1531 1531 1530 1532 1535 1542 1543 1546 1547 1548 1549 1550 1551 1551 1550 1550 1550 1549 1549 1549 1550 1550 1550 1550 1549 1549 1548 1547 1546 1545 1544 1543 1542 1540 1539 1538 1537 1536
1510 1530 1527 1526 1527 1527 1525 1528 1530 1532 1529 1531 1532 1529 1531 1532 1538 1540 1543 1544 1546 1548 1549 1549 1550 1550 1550 1550 1549 1549 1549 1549 1549 1548 1548 1548 1548 1547 1546 1545 1544 1542 1541 1539 1538 1537 1536 1534 1534
1513 1527 1521 1523 1524 1527 1529 1531 1529 1530 1530 1528 1532 1528 1531 1533 1536 1540 1542 1543 1545 1547 1548 1548 1549 1549 1549 1549 1548 1548 1548 1548 1548 1547 1547 1547 1546 1545 1544 1543 1542 1541 1539 1537 1536 1534 1533 1533 1532
1521 1522 1521 1524 1526 1526 1528 1529 1528 1529 1526 1526 1529 1527 1529 1531 1535 1538 1539 1541 1543 1545 1546 1547 1548 1549 1548 1548 1547 1547 1546 1545 1546 1546 1545 1545 1544 1543 1542 1541 1539 1538 1536 1535 1533 1532 1531 1530 1529
1522 1522 1523 1524 1526 1525 1525 1529 1529 1525 1525 1525 1525 1527 1529 1531 1533 1534 1537 1540 1542 1543 1544 1546 1547 1547 1547 1546 1545 1545 1544 1544 1543 1543 1543 1543 1542 1542 1540 1539 1537 1535 1533 1532 1530 1529 1529 1527 1526
1521 1520 1522 1523 1523 1522 1525 1527 1528 1522 1521 1522 1524 1524 1528 1530 1531 1534 1536 1538 1539 1541 1542 1544 1545 1545 1545 1545 1545 1543 1543 1542 1542 1541 1541 1541 1540 1539 1537 1536 1534 1532 1531 1529 1528 1527 1526 1526 1524
1522 1524 1522 1523 1520 1524 1525 1527 1525 1521 1521 1521 1521 1524 1525 1528 1531 1533 1535 1536 1538 1539 1541 1543 1545 1545 1545 1544 1543 1541 1541 1540 1539 1539 1539 1538 1537 1536 1535 1533 1531 1529 1527 1526 1525 1524 1523 1522 1522
1529 1530 1539 1527 1524 1527 1528 1537 1519 1520 1520 1518 1519 1521 1523 1527 1530 1532 1534 1535 1537 1539 1542 1544 1545 1544 1544 1543 1543 1541 1540 1538 1537 1536 1534 1533 1532 1531 1530 1528 1527 1526 1524 1523 1522 1521 1520 1519 1519
1543 1548 1542 1536 1529 1531 1530 1533 1519 1519 1518 1515 1517 1518 1522 1526 1529 1531 1532 1533 1536 1539 1541 1543 1544 1543 1543 1542 1542 1540 1539 1537 1535 1533 1532 1530 1528 1527 1525 1524 1522 1521 1520 1518 1517 1516 1515 1515 1514
1546 1544 1543 1542 1534 1532 1533 1531 1520 1516 1515 1514 1514 1516 1520 1526 1529 1530 1531 1532 1533 1537 1540 1542 1543 1542 1541 1541 1540 1539 1537 1534 1532 1530 1528 1526 1524 1523 1521 1519 1518 1517 1516 1514 1512 1511 1510 1510 1509
1537 1541 1543 1538 1534 1535 1534 1533 1524 1516 1514 1513 1515 1518 1522 1526 1527 1529 1529 1530 1532 1535 1539 1540 1541 1540 1539 1539 1538 1537 1535 1533 1530 1528 1526 1524 1522 1520 1517 1514 1512 1511 1509 1509 1509 1507 1506 1505 1504
1537 1542 1546 1540 1535 1536 1534 1532 1525 1520 1520 1519 1519 1521 1523 1525 1528 1529 1530 1532 1533 1535 1537 1538 1539 1539 1538 1537 1536 1534 1532 1530 1527 1526 1524 1521 1518 1515 1511 1508 1506 1504 1502 1501 1501 1499 1498 1498 1498
1541 1541 1542 1545 1539 1536 1537 1535 1532 1525 1523 1523 1523 1525 1526 1528 1530 1531 1532 1533 1534 1535 1536 1537 1537 1536 1535 1533 1532 1530 1528 1526 1523 1521 1518 1516 1512 1508 1504 1499 1496 1495 1493 1491 1491 1491 1490 1489 1490
1547 1538 1540 1542 1544 1549 1541 1552 1538 1534 1528 1527 1528 1528 1529 1530 1531 1532 1532 1533 1534 1535 1535 1535 1534 1533 1531 1529 1528 1525 1523 1520 1518 1514 1510 1507 1504 1499 1495 1491 1487 1484 1484 1482 1481 1481 1480 1481 1482
1544 1538 1538 1537 1543 1545 1549 1555 1545 1536 1533 1531 1529 1529 1530 1530 1531 1533 1532 1532 1533 1532 1532 1532 1531 1529 1528 1527 1524 1522 1519 1515 1510 1507 1502 1499 1494 1491 1486 1482 1479 1475 1472 1470 1470 1472 1473 1473 1475
1538 1539 1541 1545 1548 1562 1553 1556 1553 1544 1538 1534 1531 1531 1532 1533 1533 1533 1532 1532 1532 1531 1531 1530 1529 1528 1527 1524 1521 1517 1513 1507 1502 1499 1494 1489 1484 1479 1475 1472 1469 1464 1460 1459 1459 1461 1462 1465 1467
1542 1550 1571 1571 1577 1572 1551 1556 1549 1537 1535 1532 1532 1532 1533 1534 1533 1532 1532 1531 1530 1530 1530 1529 1528 1526 1523 1519 1515 1511 1507 1503 1498 1492 1485 1480 1475 1471 1467 1464 1459 1456 1453 1453 1453 1454 1454 1457 1457
1549 1555 1579 1577 1590 1578 1555 1553 1546 1537 1535 1534 1535 1535 1533 1532 1531 1531 1531 1530 1529 1529 1528 1527 1524 1522 1519 1516 1512 1507 1503 1497 1491 1485 1479 1474 1470 1466 1460 1460 1456 1454 1453 1453 1453 1454 1452 1454 1455
1550 1564 1559 1578 1603 1592 1565 1550 1540 1538 1539 1537 1536 1535 1534 1534 1533 1533 1532 1531 1530 1529 1527 1524 1520 1517 1514 1510 1505 1502 1497 1490 1483 1478 1473 1468 1465 1462 1459 1457 1456 1455 1454 1454 1452 1451 1449 1453 1451
1551 1556 1569 1579 1593 1585 1566 1559 1552 1544 1542 1540 1539 1538 1537 1536 1535 1535 1534 1532 1530 1527 1524 1521 1516 1512 1508 1504 1498 1494 1489 1482 1474 1469 1464 1463 1461 1459 1458 1456 1456 1455 1454 1451 1448 1448 1450 1449 1449
1560 1566 1567 1570 1580 1591 1591 1566 1545 1544 1541 1541 1540 1539 1538 1538 1537 1535 1532 1528 1525 1522 1519 1513 1510 1507 1503 1498 1493 1489 1483 1474 1466 1460 1457 1459 1460 1459 1457 1454 1452 1451 1449 1448 1447 1448 1448 1448 1447
1558 1562 1567 1586 1582 1587 1593 1563 1539 1538 1538 1538 1539 1538 1538 1536 1533 1530 1527 1524 1523 1519 1514 1510 1506 1502 1498 1494 1488 1483 1476 1469 1462 1456 1454 1457 1458 1456 1453 1450 1448 1448 1447 1447 1445 1444 1444 1443 1442